User: anonymous   Login
Location: Unspecified
(0.0000°N, 0.0000°E)
Time: 06:08:55
(UTC+00:00)
Language:

SSETI-EXPRESS DEB - Orbit

View from above orbital plane
View from above orbital plane
View from above satellite
View from above satellite

Ground track
Ground track

The orbit data is extracted from the following two-line orbital elements,

1 28897U 05043H   17296.43795944  .00000253  00000-0  56859-4 0  9993
2 28897  97.8768  93.3784 0017446  93.8320 322.8855 14.63900443631638
Epoch (UTC): 23 October 2017 10:30:39
Eccentricity: 0.0017446
inclination: 97.8768°
perigee height: 668 km
apogee height: 693 km
right ascension of ascending node: 93.3784°
argument of perigee: 93.8320°
revolutions per day: 14.63900443
mean anomaly at epoch: 322.8855°
orbit number at epoch: 63163

The dashed part of the orbit path shows where the satellite is in the earth's shadow,  

DLR